Mayfld Grav Cnty AP, Mayfield, KY

5:10 AM CST on December 16, 2019 (GMT -0600)
Mayfld Grav Cnty AP, Mayfield

Weather History for KM25 - August, 2019

Change the Weather History Date:

Monday, August 19, 2019

  Actual Average (KPAH) Record (KPAH)
Temperature  
Mean Temperature 81 °F -  
Max Temperature 93 °F 87 °F 98 °F (1962)
Min Temperature 69 °F 67 °F 57 °F (1982)
Cooling Degree Days 16    
Growing Degree Days 31 (Base 50)    
Moisture  
Dew Point 72 °F    
Average Humidity 75    
Maximum Humidity 100    
Minimum Humidity 49    
Precipitation  
Precipitation 0.00 in - - ()
Sea Level Pressure  
Sea Level Pressure 30.03 in    
Wind  
Wind Speed 2 mph (SSW)    
Max Wind Speed 6 mph    
Max Gust Speed -    
Visibility 10 miles    
Events      
Averages and records for this station are not official NWS values.
T = Trace of Precipitation, MM = Missing Value Source: NWS Daily Summary

Daily Weather History Graph

Daily Weather History Graph

Search for Another Location

Airport or City:

Astronomy

Aug. 19, 2019 Rise Set
Actual Time 6:14 AM CDT 7:40 PM CDT
Civil Twilight 5:47 AM CDT 8:07 PM CDT
Nautical Twilight 5:14 AM CDT 8:40 PM CDT
Astronomical Twilight 4:40 AM CDT 9:14 PM CDT
Moon 10:07 PM CDT (8/19) 9:50 AM CDT (8/19)
Length of Visible Light 14h 20m
Length of Day
13h 26m
Waning Gibbous, 85% of the Moon is Illuminated
Aug 19
Waning Gibbous
Aug 23
Last Quarter
Aug 30
New
Sep 5
First Quarter
Sep 13
Full

Hourly Weather History & Observations

Time (CDT) Temp. Heat Index Dew Point Humidity Pressure Visibility Wind Dir Wind Speed Gust Speed Precip Events Conditions
12:15 AM 78.8 °F - 73.4 °F 83% 29.99 in 10.0 mi WSW 5.8 mph - N/A   Clear
12:35 AM 77.0 °F - 73.4 °F 89% 29.99 in 10.0 mi West 3.5 mph - N/A   Clear
12:55 AM 77.0 °F - 71.6 °F 83% 29.99 in 10.0 mi West 5.8 mph - N/A   Clear
1:15 AM 75.2 °F - 71.6 °F 89% 29.98 in 10.0 mi West 4.6 mph - N/A   Clear
1:35 AM 73.4 °F - 71.6 °F 94% 29.98 in 10.0 mi Calm Calm - N/A   Clear
1:55 AM 73.4 °F - 69.8 °F 88% 29.98 in 10.0 mi Calm Calm - N/A   Clear
2:15 AM 71.6 °F - 69.8 °F 94% 29.98 in 10.0 mi Calm Calm - N/A   Clear
2:55 AM 71.6 °F - 69.8 °F 94% 29.98 in 10.0 mi Calm Calm - N/A   Clear
3:15 AM 71.6 °F - 69.8 °F 94% 29.98 in 10.0 mi Calm Calm - N/A   Clear
4:15 AM 69.8 °F - 69.8 °F 100% 30.01 in 10.0 mi Calm Calm - N/A   Clear
4:35 AM 69.8 °F - 69.8 °F 100% 30.01 in 10.0 mi SE 3.5 mph - N/A   Clear
4:55 AM 69.8 °F - 69.8 °F 100% 30.01 in 10.0 mi Calm Calm - N/A   Clear
5:15 AM 69.8 °F - 69.8 °F 100% 30.02 in 10.0 mi Calm Calm - N/A   Clear
5:35 AM 69.8 °F - 69.8 °F 100% 30.02 in 10.0 mi South 3.5 mph - N/A   Clear
5:55 AM 69.8 °F - 69.8 °F 100% 30.03 in 10.0 mi Calm Calm - N/A   Clear
6:15 AM 69.8 °F - 69.8 °F 100% 30.04 in 7.0 mi Calm Calm - N/A   Clear
6:35 AM 69.8 °F - 69.8 °F 100% 30.04 in 7.0 mi Calm Calm - N/A   Clear
6:55 AM 69.8 °F - 69.8 °F 100% 30.05 in 7.0 mi Calm Calm - N/A   Clear
7:15 AM 71.6 °F - 69.8 °F 94% 30.05 in 10.0 mi SSW 3.5 mph - N/A   Clear
7:35 AM 73.4 °F - 69.8 °F 88% 30.06 in 10.0 mi SSW 4.6 mph - N/A   Clear
7:55 AM 75.2 °F - 69.8 °F 83% 30.06 in 10.0 mi SSW 3.5 mph - N/A   Clear
8:15 AM 77.0 °F - 69.8 °F 78% 30.06 in 10.0 mi SSW 3.5 mph - N/A   Clear
8:35 AM 77.0 °F - 71.6 °F 83% 30.06 in 10.0 mi South 3.5 mph - N/A   Clear
8:55 AM 78.8 °F - 71.6 °F 78% 30.06 in 10.0 mi South 3.5 mph - N/A   Clear
9:15 AM 78.8 °F - 71.6 °F 78% 30.06 in 10.0 mi SSW 3.5 mph - N/A   Clear
9:35 AM 80.6 °F 85.4 °F 73.4 °F 79% 30.07 in 10.0 mi SSW 4.6 mph - N/A   Clear
9:55 AM 82.4 °F 88.2 °F 73.4 °F 74% 30.07 in 10.0 mi SSE 3.5 mph - N/A   Clear
10:35 AM 86.0 °F 93.4 °F 73.4 °F 66% 30.07 in 10.0 mi Calm Calm - N/A   Clear
10:55 AM 86.0 °F 93.4 °F 73.4 °F 66% 30.07 in 10.0 mi SSW 3.5 mph - N/A   Clear
11:15 AM 87.8 °F 95.6 °F 73.4 °F 62% 30.07 in 10.0 mi Calm Calm - N/A   Clear
11:35 AM 86.0 °F 93.4 °F 73.4 °F 66% 30.06 in 10.0 mi Calm Calm - N/A   Clear
11:55 AM 87.8 °F 95.6 °F 73.4 °F 62% 30.06 in 10.0 mi Calm Calm - N/A   Clear
12:15 PM 87.8 °F 95.6 °F 73.4 °F 62% 30.06 in 10.0 mi Calm Calm - N/A   Clear
12:35 PM 89.6 °F 99.8 °F 75.2 °F 62% 30.06 in 10.0 mi Calm Calm - N/A   Clear
12:55 PM 89.6 °F 99.8 °F 75.2 °F 62% 30.06 in 10.0 mi SW 3.5 mph - N/A   Clear
1:15 PM 89.6 °F 98.2 °F 73.4 °F 59% 30.05 in 10.0 mi Calm Calm - N/A   Clear
1:55 PM 91.4 °F 100.1 °F 73.4 °F 55% 30.04 in 10.0 mi Calm Calm - N/A   Clear
2:15 PM 91.4 °F 98.4 °F 71.6 °F 52% 30.03 in 10.0 mi Calm Calm - N/A   Clear
2:35 PM 91.4 °F 98.4 °F 71.6 °F 52% 30.03 in 10.0 mi WSW 3.5 mph - N/A   Scattered Clouds
2:55 PM 93.2 °F 102.4 °F 73.4 °F 52% 30.02 in 10.0 mi South 4.6 mph - N/A   Mostly Cloudy
3:15 PM 93.2 °F 100.5 °F 71.6 °F 49% 30.01 in 10.0 mi SSW 4.6 mph - N/A   Scattered Clouds
3:35 PM 93.2 °F 100.5 °F 71.6 °F 49% 30.01 in 10.0 mi South 3.5 mph - N/A   Scattered Clouds
3:55 PM 93.2 °F 100.5 °F 71.6 °F 49% 30.01 in 10.0 mi Calm Calm - N/A   Scattered Clouds
4:15 PM 93.2 °F 100.5 °F 71.6 °F 49% 30.01 in 10.0 mi WSW 4.6 mph - N/A   Scattered Clouds
4:35 PM 93.2 °F 100.5 °F 71.6 °F 49% 30.01 in 10.0 mi SW 4.6 mph - N/A   Scattered Clouds
4:55 PM 93.2 °F 100.5 °F 71.6 °F 49% 30.00 in 10.0 mi South 4.6 mph - N/A   Clear
5:15 PM 93.2 °F 100.5 °F 71.6 °F 49% 30.00 in 10.0 mi South 3.5 mph - N/A   Clear
5:35 PM 91.4 °F 98.4 °F 71.6 °F 52% 30.00 in 10.0 mi South 4.6 mph - N/A   Clear
5:55 PM 91.4 °F 98.4 °F 71.6 °F 52% 30.00 in 10.0 mi Calm Calm - N/A   Clear
6:15 PM 89.6 °F 96.2 °F 71.6 °F 55% 29.99 in 10.0 mi Calm Calm - N/A   Clear
6:35 PM 89.6 °F 98.2 °F 73.4 °F 59% 29.99 in 10.0 mi WSW 3.5 mph - N/A   Clear
6:55 PM 87.8 °F 95.6 °F 73.4 °F 62% 29.99 in 10.0 mi Calm Calm - N/A   Clear
7:15 PM 87.8 °F 95.6 °F 73.4 °F 62% 29.99 in 10.0 mi West 4.6 mph - N/A   Clear
7:35 PM 86.0 °F 93.4 °F 73.4 °F 66% 30.00 in 10.0 mi Calm Calm - N/A   Clear
10:35 PM 78.8 °F - 75.2 °F 89% 30.06 in 10.0 mi Calm Calm - N/A   Clear
10:55 PM 77.0 °F - 75.2 °F 94% 30.05 in 10.0 mi South 3.5 mph - N/A   Clear
11:15 PM 77.0 °F - 75.2 °F 94% 30.05 in 10.0 mi Calm Calm - N/A   Clear
11:35 PM 77.0 °F - 73.4 °F 89% 30.04 in 10.0 mi SSW 4.6 mph - N/A   Clear
11:55 PM 78.8 °F - 73.4 °F 83% 30.05 in 10.0 mi Calm Calm - N/A   Clear